sat.trackr.live / text

‹ back to catalog

STARLINK-33967

NORAD 64027 · 2025-102F

PAYLOAD ACTIVE UNKNOWN

§ Identity

Operator
Country
US
Launch date
2025-05-16
Launch site
AFWTR
Launch vehicle
Mass (kg)
RCS (m²)

Purposes: comms

External: N2YO · Heavens-Above · Gunter

§ Orbital elements

Epoch: 2026-05-24T19:20:14.275392Z

Period
96.11 min
Inclination
70.0003°
Eccentricity
0.0002527
Mean motion
14.98337541 rev/d
Perigee alt
570.3 km
Apogee alt
573.8 km
Semi-major
6,950.2 km
B*
2.5087e-4
RAAN
282.5353°
Arg perigee
272.0464°
Mean anomaly
88.0405°
Rev number
5,729

§ Raw data

STARLINK-339671 64027U 25102F   26144.80572078  .00002902  00000+0  25087-3 0  99902 64027  70.0003 282.5353 0002527 272.0464  88.0405 14.98337541 57293

JSON: /api/v1/satellites/64027 · /tle

For live sub-satellite position, see the globe view (requires WebGL).

§ Visibility from observer

Set your observer location to see the next 7 days of passes ≥ 10°. The values pass through the URL so the page stays shareable.

No JS? Fill the form by hand. The geolocation button needs JavaScript.